Regional Weather Roundup
Issued by NWS Green Bay, WI

Home | Current Version | Previous Version | Graphics & Text | Print | Product List | Glossary Off
Versions: 1 2 3 4 5 6 7 8 9 10 11 12 13 14 15 16 17 18 19 20 21 22 23 24 25 26 27 28 29 30 31 32 33 34 35 36 37 38 39 40 41 42 43 44 45 46 47 48 49 50

000
ASUS43 KGRB 100610
RWRGRB

NORTH-CENTRAL AND NORTHEAST WISCONSIN REGIONAL WEATHER ROUNDUP
NATIONAL WEATHER SERVICE GREEN BAY WI
100 AM CDT THU JUL 10 2014

WIZ005-009-010>012-018-019-100700-
NORTH CENTRAL WISCONSIN

CITY           SKY/WX    TMP DP  RH WIND       PRES   REMARKS
IRONWOOD       NOT AVBL
MANITOWISH WTR CLEAR     45  45 100 CALM      30.08S FOG
ARBOR VITAE    CLEAR     46  36  69 CALM      30.08S
EAGLE RIVER    FOG       44  44 100 CALM      30.08R VSB 1/2
LAND O LAKES   CLEAR     42  41  99 CALM      30.09S FOG
RHINELANDER    CLEAR     43  41  93 CALM      30.09R
PHILLIPS       CLEAR     49  49  97 CALM      30.08R
ANTIGO         CLEAR     47  46  97 CALM      30.09R
TOMAHAWK       CLEAR     43  42  96 CALM      30.09S
MERRILL        CLEAR     48  48 100 CALM      30.08S
$$

WIZ013-073-100700-
NORTHEAST WISCONSIN

CITY           SKY/WX    TMP DP  RH WIND       PRES   REMARKS
IRON MOUNTAIN  FOG       47  46  97 CALM      30.07R VSB 1/2
MARINETTE      CLEAR     52  48  87 CALM      30.06S
OCONTO         CLEAR     50  50 100 CALM      30.07R
$$

WIZ017-030-035>037-045-100700-
CENTRAL WISCONSIN

CITY           SKY/WX    TMP DP  RH WIND       PRES   REMARKS
MEDFORD        CLEAR     50  49  97 CALM      30.08S
WAUSAU         CLEAR     54  50  86 CALM      30.07R
MOSINEE        CLEAR     54  50  87 CALM      30.09R
MARSHFIELD     CLEAR     56  52  86 CALM      30.07S
WISC RAPIDS    CLEAR     53  51  93 CALM      30.08S
STEVENS POINT  CLEAR     49  48  95 CALM      30.09R
WAUPACA        CLEAR     53  51  92 CALM      30.08S
SHAWANO        CLEAR     54  52  92 CALM      30.08R
CLINTONVILLE   CLEAR     52  50  93 CALM      30.07S
$$

WIZ038-039-048-051-100700-
FOX VALLEY

CITY           SKY/WX    TMP DP  RH WIND       PRES   REMARKS
NWS GREEN BAY  CLEAR     54  53  97 CALM      30.07S
APPLETON       CLEAR     57  46  67 CALM      30.08S
OSHKOSH        CLEAR     56  52  86 CALM      30.07R
FOND DU LAC    CLEAR     53  51  93 CALM      30.08R
$$

WIZ022-050-052-100700-
EAST CENTRAL WISCONSIN

CITY           SKY/WX    TMP DP  RH WIND       PRES   REMARKS
STURGEON BAY   CLEAR     54  50  87 CALM      30.08R
MANITOWOC      CLEAR     54  52  93 CALM      30.08S
SHEBOYGAN      PTCLDY    53  52  96 CALM      30.08R FOG
$$

LMZ563-521-522-541>543-100700-
LAKESHORE

STATION/POSITION TIME  TEMP    WIND        PRES    VSBY  WAVE
                       AIR SEA DIR/SP/G                  HT/PER
                 (UTC) (F)     (DEG/KT/KT) (MB)    (MI)  (FT/S)
SHEBOYGAN LKSHOR 0600   59      CALM  /  2 1018.8R
KEWAUNEE LKSHORE 0600   56     300/  4/  4 1018.8S
NORTHPORT PIER   0600   57     200/  4/  6 1017.9S
N MID LAKE BUOY  0600   56 54  170/  2/  4 1018.0R         0
SISTER BAY LKSHO 0500   56        CALM       N/A
MENOMINEE LKSHOR 0600   59      CALM  /  2 1018.7R
$$



USA.gov is the U.S. government's official web portal to all federal, state and local government web resources and services.